Regional Weather Roundup
Issued by NWS Little Rock, AR

Home | Current Version | Previous Version | Text Only | Print | Product List | Glossary On
Versions: 1 2 3 4 5 6 7 8 9 10 11 12 13 14 15 16 17 18 19 20 21 22 23 24 25 26 27 28 29 30 31
000
ASUS44 KLZK 241105
RWRLZK

WEATHER ROUNDUP FOR ARKANSAS
NATIONAL WEATHER SERVICE LITTLE ROCK AR
600 AM CDT MON JUL 24 2017

NOTE: "FAIR" INDICATES FEW OR NO CLOUDS BELOW 12,000 FEET WITH NO
SIGNIFICANT WEATHER AND/OR OBSTRUCTIONS TO VISIBILITY.

ARZ001-003-010-029-241200-
NORTHWEST ARKANSAS

CITY           SKY/WX    TMP DP  RH WIND       PRES   REMARKS
FAYETTEVILLE   MOCLDY    67  67 100 CALM      29.99R FOG
FORT SMITH     CLEAR     74  74 100 SW3       29.94R
HARRISON       CLOUDY    71  68  90 W7        29.98R
BENTONVILLE    CLEAR     70  64  83 CALM      29.99R
ROGERS         CLEAR     69  67  93 S3        29.99R
SILOAM SPGS    CLEAR     66  63  88 CALM      29.99R
SPRINGDALE       N/A     70  70 100 CALM      30.00
$$

ARZ004-005-016-241200-
NORTH CENTRAL ARKANSAS

CITY           SKY/WX    TMP DP  RH WIND       PRES   REMARKS
BATESVILLE     MOCLDY    73  70  88 SE5       29.92R
FLIPPIN        MOCLDY    73  64  73 N6        29.91S
MTN HOME       CLOUDY    72  70  93 CALM      29.94R
$$

ARZ040-041-241200-
WEST CENTRAL ARKANSAS

CITY           SKY/WX    TMP DP  RH WIND       PRES   REMARKS
MENA           CLOUDY    72  72 100 CALM      29.97R
MOUNT IDA      CLOUDY    71  69  93 CALM      29.93R
$$

ARZ009-017-025-026-028-241200-
NORTHEAST ARKANSAS

CITY           SKY/WX    TMP DP  RH WIND       PRES   REMARKS
JONESBORO      MOCLDY    74  73  97 S5        29.91R
WALNUT RIDGE   CLOUDY    73  72  94 SE5       29.91R
BLYTHEVILLE    CLOUDY    75  73  93 SW5       29.92R
$$

ARZ022-023-033-042-044-241200-
CENTRAL ARKANSAS

CITY           SKY/WX    TMP DP  RH WIND       PRES   REMARKS
LITTLE ROCK    MOCLDY    72  72 100 CALM      29.93R
N LITTLE ROCK    N/A     73  71  94 CALM      29.92R
JACKSONVILLE   CLOUDY    74  73  99 CALM      29.92R
CONWAY           N/A     75  73  94 W7        29.91R
SEARCY         PTCLDY    72  72 100 CALM      29.94
HOT SPRINGS    CLOUDY    74  74 100 CALM      29.93R
RUSSELLVILLE   MOCLDY    73  72  96 CALM      29.93R
CLINTON        FAIR      73  72  94 CALM      29.93R
$$

ARZ036-241200-
EAST ARKANSAS

CITY           SKY/WX    TMP DP  RH WIND       PRES   REMARKS
WEST MEMPHIS   CLOUDY    73  73 100 S7        29.92R
$$

ARZ050-053-066-070-073-241200-
SOUTHWEST ARKANSAS

CITY           SKY/WX    TMP DP  RH WIND       PRES   REMARKS
ARKADELPHIA    FAIR      73  72  96 CALM      29.92R
CAMDEN         MOCLDY    72  68  88 CALM      29.92R
TEXARKANA      CLOUDY    73  73 100 N3        29.92R
EL DORADO      MOCLDY    72  72 100 CALM      29.92R
DE QUEEN       CLOUDY    73  73 100 NW3       29.92S
$$

ARZ056-057-069-241200-
SOUTHEAST ARKANSAS

CITY           SKY/WX    TMP DP  RH WIND       PRES   REMARKS
PINE BLUFF     PTCLDY    72  71  97 CALM      29.93R
STUTTGART      CLOUDY    75  63  64 S5        29.93R
MONTICELLO     PTCLDY    75  72  90 NW3       29.93R

$$






USA.gov is the U.S. government's official web portal to all federal, state and local government web resources and services.